Date String (YYYY-MM-DD hh:mm:ss) UTC,Instrument flags,Ambient pressure (hPa),Sample flow (lpm),Bypass flow (lpm),Sample temperature (°C),Ambient temperature (°C),ASC tube jacket temperature (°C),LED temperature (°C),Box temperature (°C),Sample RH (%),Mass concentration (μg/m³),Mass concentration (μg/m³)
DateTimeUTC,F1_M11,P_M11,Q1_M11,Q2_M11,T1_M11,T2_M11,T3_M11,T4_M11,T5_M11,U1_M11,X0_M11,X2_M11
2021-08-13 03:00:00,,0832.8,4.98,0.00,29.0,27.9,00.0,38.1,31.1,28.1,0028.87,0016.59
2021-08-13 03:01:00,,0832.7,5.01,0.00,29.1,28.1,00.0,38.1,31.1,28.0,0029.15,0016.56
2021-08-13 03:02:00,,0832.8,4.99,0.00,29.1,28.3,00.0,38.1,31.2,27.6,0030.59,0016.56
2021-08-13 03:03:00,,0832.9,4.99,0.00,29.2,28.4,00.0,38.1,31.3,27.7,0030.42,0016.60
2021-08-13 03:04:00,,0832.8,5.00,0.00,29.3,28.6,00.0,38.2,31.3,27.7,0030.04,0016.60
2021-08-13 03:05:00,,0832.9,5.00,0.00,29.4,28.7,00.0,38.2,31.4,27.4,0029.62,0016.63
2021-08-13 03:06:00,,0833.0,5.01,0.00,29.4,28.1,00.0,38.2,31.2,27.3,0030.21,0016.63
2021-08-13 03:07:00,,0833.0,5.00,0.00,29.2,26.2,00.0,38.2,30.7,27.6,0030.50,0016.66
2021-08-13 03:08:00,,0833.1,5.00,0.00,29.0,25.4,00.0,38.2,30.5,27.7,0030.83,0016.73
2021-08-13 03:09:00,,0833.0,5.01,0.00,28.9,25.6,00.0,38.2,30.5,28.2,0031.31,0016.74
2021-08-13 03:10:00,,0833.0,4.99,0.00,28.8,26.1,00.0,38.1,30.6,28.6,0031.17,0016.71
2021-08-13 03:11:00,,0833.1,5.00,0.00,28.8,26.6,00.0,38.1,30.7,28.9,0031.09,0016.72
2021-08-13 03:12:00,,0833.1,5.00,0.00,28.8,27.0,00.0,38.1,30.8,29.3,0031.58,0016.65
2021-08-13 03:13:00,,0833.1,5.02,0.00,28.9,27.4,00.0,38.1,30.9,29.5,0030.18,0016.64
2021-08-13 03:14:00,,0833.2,4.99,0.00,28.9,27.7,00.0,38.1,31.0,29.3,0029.47,0016.59
2021-08-13 03:15:00,,0833.2,5.01,0.00,29.0,27.9,00.0,38.1,31.1,29.0,0030.37,0016.60
2021-08-13 03:16:00,,0833.1,5.00,0.00,29.1,28.1,00.0,38.1,31.2,28.8,0030.36,0016.62
2021-08-13 03:17:00,,0833.1,5.00,0.00,29.1,28.3,00.0,38.1,31.2,28.9,0029.40,0016.62
2021-08-13 03:18:00,,0833.1,4.99,0.00,29.2,28.5,00.0,38.2,31.3,29.0,0030.73,0016.61
2021-08-13 03:19:00,,0833.1,5.01,0.00,29.3,28.6,00.0,38.2,31.4,28.9,0030.80,0016.54
2021-08-13 03:20:00,,0833.2,5.00,0.00,29.4,28.7,00.0,38.2,31.4,28.8,0030.31,0016.44
2021-08-13 03:21:00,,0833.1,4.99,0.00,29.4,28.0,00.0,38.3,31.2,29.1,0030.16,0016.35
2021-08-13 03:22:00,,0833.2,5.01,0.00,29.2,26.1,00.0,38.2,30.7,29.2,0029.89,0016.25
2021-08-13 03:23:00,,0833.2,5.00,0.00,29.0,25.3,00.0,38.2,30.4,29.6,0030.43,0016.31
2021-08-13 03:24:00,,0833.2,5.00,0.00,28.9,25.6,00.0,38.2,30.5,29.7,0030.59,0016.19
2021-08-13 03:25:00,,0833.2,5.01,0.00,28.8,26.1,00.0,38.1,30.6,29.5,0031.02,0016.14
2021-08-13 03:26:00,,0833.1,5.00,0.00,28.8,26.6,00.0,38.1,30.7,29.7,0029.76,0016.09
2021-08-13 03:27:00,,0833.2,4.99,0.00,28.8,27.0,00.0,38.1,30.8,29.7,0029.11,0015.99
2021-08-13 03:28:00,,0833.3,4.99,0.00,28.9,27.3,00.0,38.1,30.9,29.9,0030.40,0015.96
2021-08-13 03:29:00,,0833.3,5.01,0.00,29.0,27.7,00.0,38.1,31.0,29.7,0029.95,0015.96
2021-08-13 03:30:00,,0833.3,4.99,0.00,29.0,27.9,00.0,38.1,31.1,29.8,0029.56,0015.89
2021-08-13 03:31:00,,0833.3,5.02,0.00,29.1,28.1,00.0,38.1,31.2,30.0,0029.75,0015.88
2021-08-13 03:32:00,,0833.3,5.00,0.00,29.2,28.3,00.0,38.1,31.2,29.8,0030.07,0015.92
2021-08-13 03:33:00,,0833.3,5.00,0.00,29.2,28.5,00.0,38.2,31.3,30.0,0030.34,0015.90
2021-08-13 03:34:00,,0833.2,5.00,0.00,29.3,28.6,00.0,38.2,31.4,29.9,0029.89,0015.82
2021-08-13 03:35:00,,0833.3,4.99,0.00,29.4,28.7,00.0,38.2,31.4,29.9,0029.56,0015.86
2021-08-13 03:36:00,,0833.4,5.00,0.00,29.4,28.8,00.0,38.3,31.5,29.7,0030.18,0015.78
2021-08-13 03:37:00,,0833.3,5.02,0.00,29.5,28.1,00.0,38.3,31.3,29.6,0030.36,0015.72
2021-08-13 03:38:00,,0833.3,4.98,0.00,29.3,26.3,00.0,38.3,30.8,29.9,0030.69,0015.63
2021-08-13 03:39:00,,0833.2,5.00,0.00,29.1,25.6,00.0,38.3,30.5,30.3,0030.27,0015.57
2021-08-13 03:40:00,,0833.3,5.01,0.00,29.0,25.8,00.0,38.2,30.6,30.5,0030.64,0015.42
2021-08-13 03:41:00,,0833.2,5.00,0.00,28.9,26.3,00.0,38.2,30.7,30.7,0031.16,0015.38
2021-08-13 03:42:00,,0833.3,5.00,0.00,28.9,26.7,00.0,38.2,30.8,30.8,0031.02,0015.34
2021-08-13 03:43:00,,0833.3,5.01,0.00,28.9,27.1,00.0,38.2,30.9,30.8,0032.28,0015.27
2021-08-13 03:44:00,,0833.3,4.99,0.00,29.0,27.5,00.0,38.2,31.0,30.7,0033.57,0015.27
2021-08-13 03:45:00,,0833.3,5.01,0.00,29.0,27.7,00.0,38.2,31.1,30.6,0034.52,0015.23
2021-08-13 03:46:00,,0833.3,4.99,0.00,29.1,28.0,00.0,38.2,31.2,30.6,0034.47,0015.24
2021-08-13 03:47:00,,0833.4,5.00,0.00,29.1,28.2,00.0,38.2,31.2,30.4,0034.34,0015.19
2021-08-13 03:48:00,,0833.4,5.02,0.00,29.2,28.4,00.0,38.2,31.3,30.4,0034.71,0015.16
2021-08-13 03:49:00,,0833.4,4.99,0.00,29.3,28.5,00.0,38.2,31.3,30.2,0034.85,0015.19
2021-08-13 03:50:00,,0833.4,4.99,0.00,29.4,28.6,00.0,38.3,31.4,29.9,0033.82,0015.16
2021-08-13 03:51:00,,0833.5,5.00,0.00,29.4,28.8,00.0,38.3,31.4,29.9,0033.16,0015.18
2021-08-13 03:52:00,,0833.4,5.01,0.00,29.5,28.9,00.0,38.3,31.5,29.6,0033.77,0015.21
2021-08-13 03:53:00,,0833.4,5.00,0.00,29.5,28.8,00.0,38.4,31.5,29.0,0033.84,0015.12
2021-08-13 03:54:00,,0833.4,4.98,0.00,29.5,27.3,00.0,38.4,31.2,29.1,0032.63,0014.96
2021-08-13 03:55:00,,0833.5,5.00,0.00,29.3,25.8,00.0,38.4,30.7,29.6,0031.55,0014.89
2021-08-13 03:56:00,,0833.5,4.98,0.00,29.1,25.7,00.0,38.3,30.6,29.7,0030.69,0014.84
2021-08-13 03:57:00,,0833.5,5.01,0.00,29.0,26.1,00.0,38.3,30.7,30.1,0032.50,0014.77
2021-08-13 03:58:00,,0833.5,5.01,0.00,28.9,26.5,00.0,38.3,30.8,30.0,0032.31,0014.74
2021-08-13 03:59:00,,0833.6,5.00,0.00,29.0,27.0,00.0,38.2,30.9,30.0,0031.54,0014.63
